,,PA_Meas_PMT16A,,PR_Meas_QMR101_102,,RH_Meas_QMH101,,SR_Meas_QMS101,,TA_Meas_QMH101,,GenWind,,GenWind,
time,status,PA,status,PR,status,RH,status,SR,status,TA,status,DirAvg,status,SpdAvg,
2009-12-28, 00:00:04,VALID,918.081,VALID,0,VALID,97.534,VALID,0.107441,VALID,19.5048,VALID,137,VALID,0.552734,
2009-12-28, 00:01:04,VALID,918.047,VALID,0,VALID,97.5721,VALID,0.107441,VALID,19.5243,VALID,137,VALID,0.820313,
2009-12-28, 00:02:04,VALID,918.044,VALID,0,VALID,97.5264,VALID,0.107441,VALID,19.5048,VALID,137,VALID,0.772656,
2009-12-28, 00:03:04,VALID,918.016,VALID,0,VALID,97.5035,VALID,0.107441,VALID,19.4853,VALID,137,VALID,0.541797,
2009-12-28, 00:04:04,VALID,918.017,VALID,0,VALID,97.4654,VALID,0,VALID,19.4463,VALID,137,VALID,1.09687,
2009-12-28, 00:05:04,VALID,918.031,VALID,0,VALID,97.4806,VALID,0,VALID,19.4658,VALID,137,VALID,0.613281,
2009-12-28, 00:06:04,VALID,917.987,VALID,0,VALID,97.4425,VALID,0.107441,VALID,19.4658,VALID,137,VALID,0.940625,
2009-12-28, 00:07:04,VALID,917.992,VALID,0,VALID,97.4501,VALID,0,VALID,19.4463,VALID,137,VALID,0.855859,
2009-12-28, 00:08:04,VALID,917.987,VALID,0,VALID,97.4196,VALID,0,VALID,19.4463,VALID,109,VALID,0.637109,
2009-12-28, 00:09:04,VALID,918.009,VALID,0,VALID,97.4349,VALID,0,VALID,19.4463,VALID,109,VALID,0.430469,
2009-12-28, 00:10:04,VALID,917.988,VALID,0,VALID,97.4196,VALID,0,VALID,19.4268,VALID,109,VALID,0.524609,
2009-12-28, 00:11:04,VALID,917.981,VALID,0,VALID,97.4501,VALID,0,VALID,19.4463,VALID,109,VALID,0.407422,
2009-12-28, 00:12:04,VALID,917.975,VALID,0,VALID,97.4501,VALID,0.107441,VALID,19.4254,VALID,109,VALID,0.701953,
2009-12-28, 00:13:04,VALID,917.96,VALID,0,VALID,97.4273,VALID,0,VALID,19.4268,VALID,109,VALID,0.736719,
2009-12-28, 00:14:04,VALID,917.974,VALID,0,VALID,97.4196,VALID,0,VALID,19.3864,VALID,109,VALID,0.739062,
2009-12-28, 00:15:04,VALID,917.965,VALID,0,VALID,97.4044,VALID,0.107441,VALID,19.4074,VALID,109,VALID,0.346875,
2009-12-28, 00:16:04,VALID,917.948,VALID,0,VALID,97.4425,VALID,0.107441,VALID,19.4074,VALID,109,VALID,0.228516,
2009-12-28, 00:17:04,VALID,917.953,VALID,0,VALID,97.4959,VALID,0,VALID,19.4268,VALID,109,VALID,0,
2009-12-28, 00:18:04,VALID,917.874,VALID,0,VALID,97.4654,VALID,0.107441,VALID,19.4074,VALID,109,VALID,0,
2009-12-28, 00:19:04,VALID,917.842,VALID,0,VALID,97.4196,VALID,0,VALID,19.3879,VALID,109,VALID,0,
2009-12-28, 00:20:04,VALID,917.841,VALID,0,VALID,97.4882,VALID,0,VALID,19.4074,VALID,109,VALID,0.165234,
2009-12-28, 00:21:04,VALID,917.766,VALID,0,VALID,97.4882,VALID,0.107441,VALID,19.4074,VALID,109,VALID,0,
2009-12-28, 00:22:04,VALID,917.764,VALID,0,VALID,97.4959,VALID,0,VALID,19.4283,VALID,109,VALID,0,
2009-12-28, 00:23:04,VALID,917.73,VALID,0,VALID,97.4882,VALID,0.107441,VALID,19.3879,VALID,109,VALID,0.324219,
2009-12-28, 00:24:04,VALID,917.745,VALID,0,VALID,97.4959,VALID,0,VALID,19.4283,VALID,109,VALID,0.0929687,
2009-12-28, 00:25:04,VALID,917.73,VALID,0,VALID,97.5035,VALID,0,VALID,19.4074,VALID,109,VALID,0.183594,
2009-12-28, 00:26:04,VALID,917.712,VALID,0,VALID,97.5264,VALID,0.107441,VALID,19.4074,VALID,109,VALID,0.655078,
2009-12-28, 00:27:04,VALID,917.696,VALID,0,VALID,97.5187,VALID,0,VALID,19.3879,VALID,109,VALID,0.758594,
2009-12-28, 00:28:04,VALID,917.731,VALID,0,VALID,97.5645,VALID,0,VALID,19.4074,VALID,109,VALID,0.301562,
2009-12-28, 00:29:04,VALID,917.752,VALID,0,VALID,97.5645,VALID,0,VALID,19.4268,VALID,109,VALID,0.336719,
2009-12-28, 00:30:04,VALID,917.743,VALID,0,VALID,97.5416,VALID,0,VALID,19.4268,VALID,109,VALID,0.00625,
2009-12-28, 00:31:04,VALID,917.737,VALID,0,VALID,97.5111,VALID,0,VALID,19.4268,VALID,109,VALID,0.133984,
2009-12-28, 00:32:04,VALID,917.734,VALID,0,VALID,97.5569,VALID,0,VALID,19.4463,VALID,109,VALID,0,
2009-12-28, 00:33:04,VALID,917.787,VALID,0,VALID,97.534,VALID,0,VALID,19.4268,VALID,109,VALID,0,
2009-12-28, 00:34:04,VALID,917.754,VALID,0,VALID,97.5416,VALID,0,VALID,19.4268,VALID,109,VALID,0,
2009-12-28, 00:35:04,VALID,917.818,VALID,0,VALID,97.5569,VALID,0.107441,VALID,19.4268,VALID,109,VALID,0,
2009-12-28, 00:36:04,VALID,917.793,VALID,0,VALID,97.5569,VALID,0.107441,VALID,19.4074,VALID,109,VALID,0.308984,
2009-12-28, 00:37:04,VALID,917.794,VALID,0,VALID,97.5492,VALID,0.107441,VALID,19.4074,VALID,109,VALID,0.394531,
2009-12-28, 00:38:04,VALID,917.781,VALID,0,VALID,97.5721,VALID,0,VALID,19.4074,VALID,109,VALID,0.319141,
2009-12-28, 00:39:04,VALID,917.797,VALID,0,VALID,97.5645,VALID,0,VALID,19.4074,VALID,109,VALID,0.0703125,
2009-12-28, 00:40:04,VALID,917.761,VALID,0,VALID,97.5569,VALID,0.107441,VALID,19.4074,VALID,109,VALID,0.00507812,
2009-12-28, 00:41:04,VALID,917.78,VALID,0,VALID,97.5645,VALID,0,VALID,19.3879,VALID,109,VALID,0,
2009-12-28, 00:42:04,VALID,917.738,VALID,0,VALID,97.6026,VALID,0.107441,VALID,19.4074,VALID,109,VALID,0,
2009-12-28, 00:43:04,VALID,917.725,VALID,0,VALID,97.6331,VALID,0,VALID,19.4268,VALID,109,VALID,0,
2009-12-28, 00:44:04,VALID,917.723,VALID,0,VALID,97.595,VALID,0,VALID,19.4463,VALID,109,VALID,0,
2009-12-28, 00:45:04,VALID,917.726,VALID,0,VALID,97.6102,VALID,0,VALID,19.4658,VALID,109,VALID,0,
2009-12-28, 00:46:04,VALID,917.72,VALID,0,VALID,97.6102,VALID,0.107441,VALID,19.4463,VALID,109,VALID,0,
2009-12-28, 00:47:04,VALID,917.722,VALID,0,VALID,97.6102,VALID,0,VALID,19.4449,VALID,109,VALID,0.201172,
2009-12-28, 00:48:04,VALID,917.695,VALID,0,VALID,97.5797,VALID,0,VALID,19.4268,VALID,109,VALID,0.369922,
2009-12-28, 00:49:04,VALID,917.702,VALID,0,VALID,97.4654,VALID,0,VALID,19.3684,VALID,109,VALID,0.363672,
2009-12-28, 00:50:04,VALID,917.686,VALID,0,VALID,97.4577,VALID,0.107441,VALID,19.3099,VALID,109,VALID,0.621875,
2009-12-28, 00:51:04,VALID,917.671,VALID,0,VALID,97.5111,VALID,0.107441,VALID,19.2904,VALID,109,VALID,0.631641,
2009-12-28, 00:52:04,VALID,917.675,VALID,0,VALID,97.5111,VALID,0,VALID,19.2514,VALID,109,VALID,0.980859,
2009-12-28, 00:53:04,VALID,917.658,VALID,0,VALID,97.4959,VALID,0,VALID,19.2319,VALID,109,VALID,0.843359,
2009-12-28, 00:54:04,VALID,917.665,VALID,0,VALID,97.5264,VALID,0,VALID,19.1929,VALID,109,VALID,0.788672,
2009-12-28, 00:55:04,VALID,917.649,VALID,0,VALID,97.5569,VALID,0,VALID,19.1734,VALID,109,VALID,0.768359,
2009-12-28, 00:56:05,VALID,917.645,VALID,0,VALID,97.5264,VALID,0,VALID,19.1734,VALID,109,VALID,0.911719,
2009-12-28, 00:57:05,VALID,917.614,VALID,0,VALID,97.5873,VALID,0,VALID,19.1539,VALID,109,VALID,0.837891,
2009-12-28, 00:58:05,VALID,917.596,VALID,0,VALID,97.5492,VALID,0,VALID,19.1149,VALID,109,VALID,0.957812,
2009-12-28, 00:59:05,VALID,917.607,VALID,0,VALID,97.6178,VALID,0,VALID,19.0954,VALID,109,VALID,0.967969,
2009-12-28, 01:00:05,VALID,917.579,VALID,0,VALID,97.534,VALID,0,VALID,19.0564,VALID,109,VALID,1.13359,
2009-12-28, 01:01:05,VALID,917.567,VALID,0,VALID,97.534,VALID,0.107441,VALID,19.0369,VALID,108,VALID,0.833984,
2009-12-28, 01:02:05,VALID,917.537,VALID,0,VALID,97.5873,VALID,0,VALID,19.0175,VALID,108,VALID,0.744141,
2009-12-28, 01:03:05,VALID,917.539,VALID,0,VALID,97.595,VALID,0,VALID,18.998,VALID,108,VALID,0.778516,
2009-12-28, 01:04:05,VALID,917.48,VALID,0,VALID,97.5797,VALID,0,VALID,18.998,VALID,108,VALID,0.796484,
2009-12-28, 01:05:05,VALID,917.466,VALID,0,VALID,97.6026,VALID,0,VALID,18.9785,VALID,108,VALID,0.746094,
2009-12-28, 01:06:05,VALID,917.447,VALID,0,VALID,97.595,VALID,0,VALID,18.9395,VALID,108,VALID,0.569531,
2009-12-28, 01:07:05,VALID,917.408,VALID,0,VALID,97.5721,VALID,0,VALID,18.92,VALID,108,VALID,0.65625,
2009-12-28, 01:08:05,VALID,917.393,VALID,0,VALID,97.5873,VALID,0,VALID,18.9005,VALID,108,VALID,0.400391,
2009-12-28, 01:09:05,VALID,917.382,VALID,0,VALID,97.5264,VALID,0.107441,VALID,18.8615,VALID,108,VALID,0.560156,
2009-12-28, 01:10:05,VALID,917.34,VALID,0,VALID,97.5492,VALID,0,VALID,18.803,VALID,108,VALID,0.419141,
2009-12-28, 01:11:05,VALID,917.325,VALID,0,VALID,97.5721,VALID,0,VALID,18.7835,VALID,108,VALID,0.451953,
2009-12-28, 01:12:05,VALID,917.269,VALID,0,VALID,97.5873,VALID,0,VALID,18.8045,VALID,108,VALID,0.365625,
2009-12-28, 01:13:05,VALID,917.263,VALID,0,VALID,97.6255,VALID,0,VALID,18.803,VALID,108,VALID,0.5375,
2009-12-28, 01:14:05,VALID,917.194,VALID,0,VALID,97.6483,VALID,0,VALID,18.7835,VALID,108,VALID,0.467578,
2009-12-28, 01:15:05,VALID,917.159,VALID,0,VALID,97.6407,VALID,0,VALID,18.824,VALID,108,VALID,0.494141,
2009-12-28, 01:16:05,VALID,917.158,VALID,0,VALID,97.6483,VALID,0,VALID,18.7835,VALID,108,VALID,0.617578,
2009-12-28, 01:17:05,VALID,917.121,VALID,0,VALID,97.6483,VALID,0.107441,VALID,18.803,VALID,108,VALID,0.635547,
2009-12-28, 01:18:05,VALID,917.107,VALID,0,VALID,97.6712,VALID,0,VALID,18.8225,VALID,108,VALID,0.625,
2009-12-28, 01:19:05,VALID,917.051,VALID,0,VALID,97.656,VALID,0,VALID,18.8434,VALID,108,VALID,0.389844,
2009-12-28, 01:20:05,VALID,917.052,VALID,0,VALID,97.6788,VALID,0.107441,VALID,18.842,VALID,108,VALID,0.774219,
2009-12-28, 01:21:05,VALID,917.019,VALID,0,VALID,97.7322,VALID,0,VALID,18.842,VALID,108,VALID,0.554688,
2009-12-28, 01:22:05,VALID,916.993,VALID,0,VALID,97.6865,VALID,0,VALID,18.8434,VALID,108,VALID,0.611328,
2009-12-28, 01:23:05,VALID,917.002,VALID,0,VALID,97.6636,VALID,0,VALID,18.8225,VALID,108,VALID,0.518359,
2009-12-28, 01:24:05,VALID,916.971,VALID,0,VALID,97.6712,VALID,0,VALID,18.8225,VALID,108,VALID,0.701172,
2009-12-28, 01:25:05,VALID,916.945,VALID,0,VALID,97.6788,VALID,0.107441,VALID,18.803,VALID,108,VALID,0.659375,
2009-12-28, 01:26:05,VALID,916.944,VALID,0,VALID,97.7093,VALID,0,VALID,18.803,VALID,108,VALID,0.658594,
2009-12-28, 01:27:05,VALID,916.919,VALID,0,VALID,97.656,VALID,0,VALID,18.803,VALID,108,VALID,0.628906,
2009-12-28, 01:28:05,VALID,916.934,VALID,0,VALID,97.6788,VALID,0,VALID,18.7835,VALID,107,VALID,0.446875,
2009-12-28, 01:29:05,VALID,916.912,VALID,0,VALID,97.7093,VALID,0,VALID,18.803,VALID,107,VALID,0.766797,
2009-12-28, 01:30:05,VALID,916.901,VALID,0,VALID,97.7246,VALID,0,VALID,18.803,VALID,108,VALID,0.602734,
2009-12-28, 01:31:05,VALID,916.865,VALID,0,VALID,97.7322,VALID,0,VALID,18.8434,VALID,107,VALID,0.336719,
2009-12-28, 01:32:05,VALID,916.876,VALID,0,VALID,97.7398,VALID,0.107441,VALID,18.842,VALID,107,VALID,0.314063,
2009-12-28, 01:33:05,VALID,916.857,VALID,0,VALID,97.7474,VALID,0,VALID,18.8615,VALID,107,VALID,0.498047,
2009-12-28, 01:34:05,VALID,916.838,VALID,0,VALID,97.7398,VALID,0,VALID,18.842,VALID,107,VALID,0.648828,
2009-12-28, 01:35:05,VALID,916.856,VALID,0,VALID,97.7017,VALID,0.107441,VALID,18.8615,VALID,107,VALID,0.723047,
2009-12-28, 01:36:05,VALID,916.832,VALID,0,VALID,97.656,VALID,0,VALID,18.824,VALID,107,VALID,0.887109,
2009-12-28, 01:37:05,VALID,916.823,VALID,0,VALID,97.6712,VALID,0,VALID,18.7835,VALID,107,VALID,0.781641,
2009-12-28, 01:38:05,VALID,916.84,VALID,0,VALID,97.6483,VALID,0,VALID,18.764,VALID,107,VALID,0.817187,
2009-12-28, 01:39:05,VALID,916.823,VALID,0,VALID,97.6941,VALID,0,VALID,18.7446,VALID,107,VALID,0.808594,
2009-12-28, 01:40:05,VALID,916.816,VALID,0,VALID,97.7398,VALID,0.107441,VALID,18.764,VALID,107,VALID,1.01016,
2009-12-28, 01:41:05,VALID,916.81,VALID,0,VALID,97.7398,VALID,0,VALID,18.7835,VALID,107,VALID,0.588672,
2009-12-28, 01:42:05,VALID,916.795,VALID,0,VALID,97.7856,VALID,0.107441,VALID,18.7835,VALID,107,VALID,0.739062,
2009-12-28, 01:43:05,VALID,916.797,VALID,0,VALID,97.7856,VALID,0,VALID,18.8225,VALID,107,VALID,0.527344,
2009-12-28, 01:44:05,VALID,916.793,VALID,0,VALID,97.7779,VALID,0,VALID,18.8225,VALID,107,VALID,0.640625,
2009-12-28, 01:45:05,VALID,916.794,VALID,0,VALID,97.7779,VALID,0,VALID,18.842,VALID,107,VALID,0.419141,
2009-12-28, 01:46:05,VALID,916.766,VALID,0,VALID,97.7856,VALID,0.107441,VALID,18.842,VALID,107,VALID,0.434766,
2009-12-28, 01:47:05,VALID,916.745,VALID,0,VALID,97.8008,VALID,0.107441,VALID,18.8615,VALID,107,VALID,0.3875,
2009-12-28, 01:48:05,VALID,916.761,VALID,0,VALID,97.816,VALID,0,VALID,18.881,VALID,107,VALID,0.620313,
2009-12-28, 01:49:05,VALID,916.727,VALID,0,VALID,97.8084,VALID,0,VALID,18.9005,VALID,107,VALID,0.673047,
2009-12-28, 01:50:05,VALID,916.736,VALID,0,VALID,97.7779,VALID,0.107441,VALID,18.9005,VALID,107,VALID,0.586719,
2009-12-28, 01:51:05,VALID,916.711,VALID,0,VALID,97.7627,VALID,0.107441,VALID,18.881,VALID,107,VALID,0.429297,
2009-12-28, 01:52:05,VALID,916.678,VALID,0,VALID,97.7627,VALID,0.107441,VALID,18.9005,VALID,107,VALID,0.524609,
2009-12-28, 01:53:05,VALID,916.64,VALID,0,VALID,97.7246,VALID,0,VALID,18.842,VALID,107,VALID,0.414453,
2009-12-28, 01:54:05,VALID,916.631,VALID,0,VALID,97.7322,VALID,0.107441,VALID,18.8225,VALID,107,VALID,0.398828,
2009-12-28, 01:55:05,VALID,916.595,VALID,0,VALID,97.7398,VALID,0.107441,VALID,18.8225,VALID,107,VALID,0,
2009-12-28, 01:56:05,VALID,916.564,VALID,0,VALID,97.7322,VALID,0,VALID,18.8225,VALID,107,VALID,0,
2009-12-28, 01:57:05,VALID,916.532,VALID,0,VALID,97.7398,VALID,0.107441,VALID,18.803,VALID,107,VALID,0,
2009-12-28, 01:58:05,VALID,916.526,VALID,0,VALID,97.7551,VALID,0,VALID,18.7835,VALID,107,VALID,0,
2009-12-28, 01:59:05,VALID,916.484,VALID,0,VALID,97.7856,VALID,0,VALID,18.824,VALID,107,VALID,0,
2009-12-28, 02:00:05,VALID,916.466,VALID,0,VALID,97.8084,VALID,0.107441,VALID,18.8016,VALID,107,VALID,0,
2009-12-28, 02:01:05,VALID,916.441,VALID,0,VALID,97.8008,VALID,0.107441,VALID,18.842,VALID,107,VALID,0,
2009-12-28, 02:02:05,VALID,916.418,VALID,0,VALID,97.7627,VALID,0,VALID,18.8629,VALID,107,VALID,0,
2009-12-28, 02:03:05,VALID,916.401,VALID,0,VALID,97.8237,VALID,0.107441,VALID,18.842,VALID,107,VALID,0,
2009-12-28, 02:04:05,VALID,916.361,VALID,0,VALID,97.8084,VALID,0.107441,VALID,18.881,VALID,107,VALID,0,
2009-12-28, 02:05:05,VALID,916.336,VALID,0,VALID,97.816,VALID,0.107441,VALID,18.881,VALID,107,VALID,0.003125,
2009-12-28, 02:06:05,VALID,916.346,VALID,0,VALID,97.7322,VALID,0.107441,VALID,18.8615,VALID,107,VALID,0.417188,
2009-12-28, 02:07:05,VALID,916.331,VALID,0,VALID,97.7246,VALID,0,VALID,18.824,VALID,107,VALID,0.682422,
2009-12-28, 02:08:05,VALID,916.278,VALID,0,VALID,97.7627,VALID,0,VALID,18.803,VALID,107,VALID,0.826953,
2009-12-28, 02:09:05,VALID,916.276,VALID,0,VALID,97.7856,VALID,0,VALID,18.8225,VALID,107,VALID,0.767578,
2009-12-28, 02:10:05,VALID,916.273,VALID,0,VALID,97.7779,VALID,0,VALID,18.8225,VALID,107,VALID,0.669141,
2009-12-28, 02:11:05,VALID,916.261,VALID,0,VALID,97.7932,VALID,0.107441,VALID,18.842,VALID,107,VALID,0.619141,
2009-12-28, 02:12:05,VALID,916.24,VALID,0,VALID,97.8008,VALID,0.107441,VALID,18.881,VALID,107,VALID,0.541797,
2009-12-28, 02:13:05,VALID,916.232,VALID,0,VALID,97.8008,VALID,0.107441,VALID,18.8615,VALID,107,VALID,0.719141,
2009-12-28, 02:14:05,VALID,916.177,VALID,0,VALID,97.7856,VALID,0.107441,VALID,18.9005,VALID,107,VALID,0.707031,
2009-12-28, 02:15:05,VALID,916.195,VALID,0,VALID,97.7703,VALID,0,VALID,18.8796,VALID,107,VALID,0.891406,
2009-12-28, 02:16:05,VALID,916.199,VALID,0,VALID,97.7627,VALID,0.107441,VALID,18.9005,VALID,107,VALID,1.10547,
2009-12-28, 02:17:05,VALID,916.213,VALID,0,VALID,97.7932,VALID,0,VALID,18.881,VALID,107,VALID,1.17266,
2009-12-28, 02:18:05,VALID,916.185,VALID,0,VALID,97.7779,VALID,0.107441,VALID,18.881,VALID,107,VALID,1.11797,
2009-12-28, 02:19:05,VALID,916.154,VALID,0,VALID,97.7627,VALID,0.107441,VALID,18.8615,VALID,107,VALID,1.02617,
2009-12-28, 02:20:05,VALID,916.163,VALID,0,VALID,97.7627,VALID,0.107441,VALID,18.8406,VALID,107,VALID,0.99375,
2009-12-28, 02:21:05,VALID,916.166,VALID,0,VALID,97.7627,VALID,0.107441,VALID,18.8824,VALID,107,VALID,0.898828,
2009-12-28, 02:22:05,VALID,916.164,VALID,0,VALID,97.7551,VALID,0,VALID,18.8406,VALID,107,VALID,0.846094,
2009-12-28, 02:23:05,VALID,916.136,VALID,0,VALID,97.7703,VALID,0,VALID,18.8615,VALID,107,VALID,0.779297,
2009-12-28, 02:24:05,VALID,916.136,VALID,0,VALID,97.7703,VALID,0,VALID,18.8601,VALID,107,VALID,1.18438,
2009-12-28, 02:25:05,VALID,916.16,VALID,0,VALID,97.7856,VALID,0,VALID,18.8615,VALID,107,VALID,0.975781,
2009-12-28, 02:26:05,VALID,916.163,VALID,0,VALID,97.7703,VALID,0,VALID,18.842,VALID,107,VALID,1.07969,
2009-12-28, 02:27:05,VALID,916.181,VALID,0,VALID,97.7703,VALID,0,VALID,18.8615,VALID,107,VALID,0.604297,
2009-12-28, 02:28:05,VALID,916.149,VALID,0,VALID,97.7856,VALID,0.107441,VALID,18.8434,VALID,107,VALID,1.09023,
2009-12-28, 02:29:05,VALID,916.158,VALID,0,VALID,97.7856,VALID,0.107441,VALID,18.8225,VALID,107,VALID,1.03516,
2009-12-28, 02:30:05,VALID,916.151,VALID,0,VALID,97.7779,VALID,0.107441,VALID,18.8225,VALID,107,VALID,0.926172,
2009-12-28, 02:31:05,VALID,916.143,VALID,0,VALID,97.7627,VALID,0,VALID,18.824,VALID,107,VALID,0.853125,
2009-12-28, 02:32:05,VALID,916.143,VALID,0,VALID,97.7703,VALID,0,VALID,18.7835,VALID,107,VALID,0.997656,
2009-12-28, 02:33:05,VALID,916.152,VALID,0,VALID,97.7856,VALID,0,VALID,18.8045,VALID,107,VALID,1.36875,
2009-12-28, 02:34:05,VALID,916.118,VALID,0,VALID,97.7627,VALID,0,VALID,18.7835,VALID,107,VALID,1.34961,
2009-12-28, 02:35:05,VALID,916.107,VALID,0,VALID,97.7703,VALID,0,VALID,18.7835,VALID,107,VALID,0.967969,
2009-12-28, 02:36:05,VALID,916.072,VALID,0,VALID,97.8008,VALID,0,VALID,18.785,VALID,107,VALID,0.871484,
2009-12-28, 02:37:05,VALID,916.08,VALID,0,VALID,97.7779,VALID,0,VALID,18.7835,VALID,107,VALID,1.28203,
2009-12-28, 02:38:05,VALID,916.035,VALID,0,VALID,97.8313,VALID,0,VALID,18.803,VALID,107,VALID,1.12969,
2009-12-28, 02:39:05,VALID,916.022,VALID,0,VALID,97.8313,VALID,0,VALID,18.803,VALID,107,VALID,1.02109,
2009-12-28, 02:40:05,VALID,916.048,VALID,0,VALID,97.8313,VALID,0,VALID,18.7835,VALID,108,VALID,0.747656,
2009-12-28, 02:41:05,VALID,916.067,VALID,0,VALID,97.8237,VALID,0.107441,VALID,18.785,VALID,108,VALID,1.1332,
2009-12-28, 02:42:05,VALID,916.062,VALID,0,VALID,97.8237,VALID,0,VALID,18.803,VALID,152,VALID,1.40195,
2009-12-28, 02:43:05,VALID,916.066,VALID,0,VALID,97.8008,VALID,0,VALID,18.8045,VALID,152,VALID,0.720312,
2009-12-28, 02:44:05,VALID,916.03,VALID,0,VALID,97.8237,VALID,0,VALID,18.7835,VALID,152,VALID,0.583984,
2009-12-28, 02:45:05,VALID,916.052,VALID,0,VALID,97.7932,VALID,0,VALID,18.764,VALID,151,VALID,0.849219,
2009-12-28, 02:46:05,VALID,916.023,VALID,0,VALID,97.816,VALID,0,VALID,18.785,VALID,151,VALID,0.627344,
2009-12-28, 02:47:05,VALID,916.011,VALID,0,VALID,97.8008,VALID,0,VALID,18.7655,VALID,151,VALID,0.795703,
2009-12-28, 02:48:05,VALID,916.007,VALID,0,VALID,97.7779,VALID,0,VALID,18.7251,VALID,151,VALID,0.621875,
2009-12-28, 02:49:05,VALID,915.994,VALID,0,VALID,97.7932,VALID,0.107441,VALID,18.6861,VALID,151,VALID,0.562891,
2009-12-28, 02:50:05,VALID,915.988,VALID,0,VALID,97.7703,VALID,0,VALID,18.6666,VALID,151,VALID,0.455078,
2009-12-28, 02:51:05,VALID,915.966,VALID,0,VALID,97.7856,VALID,0,VALID,18.668,VALID,151,VALID,0.271484,
2009-12-28, 02:52:05,VALID,915.986,VALID,0,VALID,97.8008,VALID,0,VALID,18.668,VALID,151,VALID,0.339063,
2009-12-28, 02:53:05,VALID,915.966,VALID,0,VALID,97.7932,VALID,0,VALID,18.6485,VALID,151,VALID,0.223047,
2009-12-28, 02:54:05,VALID,915.936,VALID,0,VALID,97.8084,VALID,0,VALID,18.6081,VALID,151,VALID,0.445313,
2009-12-28, 02:55:05,VALID,915.958,VALID,0,VALID,97.8237,VALID,0,VALID,18.629,VALID,151,VALID,0.358984,
2009-12-28, 02:56:05,VALID,915.949,VALID,0,VALID,97.8389,VALID,0,VALID,18.5886,VALID,151,VALID,0.327344,
2009-12-28, 02:57:05,VALID,915.965,VALID,0,VALID,97.8313,VALID,0,VALID,18.629,VALID,151,VALID,0.347656,
2009-12-28, 02:58:05,VALID,915.951,VALID,0,VALID,97.8694,VALID,0,VALID,18.629,VALID,151,VALID,0.392578,
2009-12-28, 02:59:05,VALID,915.934,VALID,0,VALID,97.8542,VALID,0,VALID,18.629,VALID,151,VALID,0.00351562,
2009-12-28, 03:00:05,VALID,915.914,VALID,0,VALID,97.8618,VALID,0,VALID,18.6485,VALID,151,VALID,0,
2009-12-28, 03:01:05,VALID,915.95,VALID,0,VALID,97.8542,VALID,0,VALID,18.6485,VALID,151,VALID,0,
2009-12-28, 03:02:05,VALID,915.957,VALID,0,VALID,97.8694,VALID,0,VALID,18.6485,VALID,151,VALID,0,
2009-12-28, 03:03:05,VALID,915.956,VALID,0,VALID,97.8694,VALID,0,VALID,18.6485,VALID,151,VALID,0.144531,
2009-12-28, 03:04:05,VALID,915.953,VALID,0,VALID,97.877,VALID,0,VALID,18.6485,VALID,151,VALID,0.0332031,
2009-12-28, 03:05:05,VALID,915.923,VALID,0,VALID,97.8542,VALID,0,VALID,18.629,VALID,151,VALID,0.416797,
2009-12-28, 03:06:05,VALID,915.898,VALID,0,VALID,97.8542,VALID,0,VALID,18.6485,VALID,151,VALID,0.499219,
2009-12-28, 03:07:05,VALID,915.881,VALID,0,VALID,97.8542,VALID,0,VALID,18.6485,VALID,151,VALID,0.626562,
2009-12-28, 03:08:05,VALID,915.889,VALID,0,VALID,97.8389,VALID,0,VALID,18.668,VALID,151,VALID,0.689062,
2009-12-28, 03:09:05,VALID,915.867,VALID,0,VALID,97.8847,VALID,0,VALID,18.6485,VALID,151,VALID,0.65,
2009-12-28, 03:10:05,VALID,915.859,VALID,0,VALID,97.877,VALID,0,VALID,18.6485,VALID,151,VALID,0.625391,
2009-12-28, 03:11:05,VALID,915.852,VALID,0,VALID,97.8389,VALID,0,VALID,18.6485,VALID,151,VALID,0.483594,
2009-12-28, 03:12:05,VALID,915.818,VALID,0,VALID,97.8542,VALID,0,VALID,18.6485,VALID,151,VALID,0.394531,
2009-12-28, 03:13:05,VALID,915.812,VALID,0,VALID,97.8542,VALID,0,VALID,18.6276,VALID,151,VALID,0.357422,
2009-12-28, 03:14:05,VALID,915.809,VALID,0,VALID,97.8313,VALID,0,VALID,18.5886,VALID,151,VALID,0.409766,
2009-12-28, 03:15:05,VALID,915.813,VALID,0,VALID,97.7703,VALID,0,VALID,18.5705,VALID,151,VALID,0.562891,
2009-12-28, 03:16:05,VALID,915.824,VALID,0,VALID,97.7627,VALID,0,VALID,18.5121,VALID,151,VALID,0.709375,
2009-12-28, 03:17:05,VALID,915.81,VALID,0,VALID,97.7932,VALID,0,VALID,18.5121,VALID,151,VALID,0.843359,
2009-12-28, 03:18:05,VALID,915.804,VALID,0,VALID,97.8465,VALID,0,VALID,18.4926,VALID,151,VALID,0.832422,
2009-12-28, 03:19:05,VALID,915.816,VALID,0,VALID,97.8618,VALID,0,VALID,18.5121,VALID,151,VALID,0.754297,
2009-12-28, 03:20:05,VALID,915.802,VALID,0,VALID,97.8389,VALID,0,VALID,18.4717,VALID,151,VALID,0.413281,
2009-12-28, 03:21:05,VALID,915.808,VALID,0,VALID,97.8237,VALID,0.107441,VALID,18.4731,VALID,151,VALID,0.377734,
2009-12-28, 03:22:05,VALID,915.797,VALID,0,VALID,97.877,VALID,0,VALID,18.4731,VALID,151,VALID,0.169531,
2009-12-28, 03:23:05,VALID,915.796,VALID,0,VALID,97.8847,VALID,0,VALID,18.4731,VALID,151,VALID,0,
2009-12-28, 03:24:05,VALID,915.814,VALID,0,VALID,97.8542,VALID,0,VALID,18.4731,VALID,151,VALID,0,
2009-12-28, 03:25:05,VALID,915.787,VALID,0,VALID,97.9075,VALID,0,VALID,18.4926,VALID,151,VALID,0,
2009-12-28, 03:26:05,VALID,915.808,VALID,0,VALID,97.8694,VALID,0,VALID,18.4731,VALID,151,VALID,0.44375,
2009-12-28, 03:27:05,VALID,915.779,VALID,0,VALID,97.8694,VALID,0,VALID,18.4731,VALID,151,VALID,0.412109,
2009-12-28, 03:28:05,VALID,915.803,VALID,0,VALID,97.8618,VALID,0,VALID,18.4522,VALID,151,VALID,0.394141,
2009-12-28, 03:29:05,VALID,915.83,VALID,0,VALID,97.8618,VALID,0,VALID,18.4536,VALID,151,VALID,0.45,
2009-12-28, 03:30:05,VALID,915.828,VALID,0,VALID,97.8465,VALID,0,VALID,18.4327,VALID,151,VALID,0.405078,
2009-12-28, 03:31:05,VALID,915.827,VALID,0,VALID,97.8999,VALID,0,VALID,18.4536,VALID,151,VALID,0.338672,
2009-12-28, 03:32:05,VALID,915.835,VALID,0,VALID,97.8542,VALID,0,VALID,18.4536,VALID,151,VALID,0.530078,
2009-12-28, 03:33:05,VALID,915.828,VALID,0,VALID,97.8465,VALID,0,VALID,18.4341,VALID,151,VALID,0.442578,
2009-12-28, 03:34:05,VALID,915.84,VALID,0,VALID,97.877,VALID,0,VALID,18.4146,VALID,151,VALID,0.154687,
2009-12-28, 03:35:05,VALID,915.831,VALID,0,VALID,97.9075,VALID,0,VALID,18.4341,VALID,151,VALID,0.232812,
2009-12-28, 03:36:05,VALID,915.873,VALID,0,VALID,97.8999,VALID,0,VALID,18.4341,VALID,151,VALID,0.224609,
2009-12-28, 03:37:05,VALID,915.875,VALID,0,VALID,97.8999,VALID,0,VALID,18.4536,VALID,151,VALID,0.186719,
2009-12-28, 03:38:05,VALID,915.883,VALID,0,VALID,97.877,VALID,0,VALID,18.4731,VALID,151,VALID,0.328906,
2009-12-28, 03:39:05,VALID,915.853,VALID,0,VALID,97.877,VALID,0,VALID,18.4341,VALID,151,VALID,0.446484,
2009-12-28, 03:40:05,VALID,915.888,VALID,0,VALID,97.8999,VALID,0,VALID,18.4536,VALID,151,VALID,0.23125,
2009-12-28, 03:41:05,VALID,915.867,VALID,0,VALID,97.9075,VALID,0,VALID,18.4731,VALID,151,VALID,0.119531,
2009-12-28, 03:42:05,VALID,915.887,VALID,0,VALID,97.9152,VALID,0,VALID,18.4926,VALID,151,VALID,0,
2009-12-28, 03:43:04,VALID,915.852,VALID,0,VALID,97.8999,VALID,0,VALID,18.4926,VALID,151,VALID,0,